Location: Milton
(43.5183°N, 79.8775°W)
Time: 05:48:03
(UTC+00:00)

N. Korean satellite - Pass Details

Date: 10 December 2022
Orbit: 407 x 444 km, 97.3° (Epoch: 28 January)

Event Time Altitude Azimuth Distance (km) Brightness Sun altitude
Rises 10:29:49 0° 15° (NNE) 2,487 10.2 -23.0°
Reaches altitude 10° 10:31:54 10° 19° (NNE) 1,600 9.3 -22.7°
Maximum altitude 10:35:18 62° 101° (E) 510 6.8 -22.1°
Drops below altitude 10° 10:38:36 10° 183° (S) 1,555 9.2 -21.5°
Sets 10:40:36 0° 186° (S) 2,408 10.2 -21.1°
